Wind_Speed
16 17 18 18 19 19 19 19 19 19 20 20 20 21 21 21 19 19 19 19 19 19 18 18 18 18 19 19 19 20 20 20 20 21 21 22 22 21
17 18 18 18 19 19 19 20 21 21 20 20 21 21 21 22 22 20 21 20 18 18 18 19 20 20 20 20 20 21 21 21 22 22 22 23 23 23
18 19 19 19 20 20 21 22 22 22 21 21 21 21 21 22 22 21 22 21 20 20 20 20 21 21 21 21 21 21 22 23 23 23 23 23 23 23
21 21 21 21 21 21 22 23 23 23 22 22 22 22 22 23 23 23 22 22 21 21 21 22 23 23 23 22 22 22 22 22 22 22 23 24 24 23
22 22 22 22 22 22 23 24 24 24 23 23 23 24 24 24 25 24 24 24 22 22 22 22 23 24 24 23 23 23 23 23 23 23 23 24 23 23
23 23 23 23 24 24 24 25 25 25 24 24 24 24 25 26 26 25 25 25 25 24 24 23 23 24 24 24 24 24 24 24 23 24 24 25 24 24
24 24 23 24 25 25 25 25 25 25 25 25 25 25 26 26 26 26 26 25 25 25 25 24 24 23 24 24 24 24 24 24 25 24 25 25 24 24
25 25 25 25 25 26 26 26 26 26 26 27 27 27 27 27 27 26 26 25 25 25 25 26 25 25 24 24 24 25 24 25 25 24 24 24 24 24
26 26 26 26 26 26 27 27 28 28 27 27 27 27 27 27 27 26 26 26 26 26 26 25 25 25 24 24 25 25 25 25 25 25 25 24 24 24
26 26 27 27 26 27 27 27 27 27 27 27 28 27 26 25 25 26 26 26 26 26 27 26 26 26 25 25 25 25 25 26 26 25 26 25 25 25
26 27 27 27 27 27 27 27 26 26 27 28 28 27 26 25 25 26 26 26 26 26 26 26 26 26 26 26 26 26 26 26 26 26 26 25 25 25
27 27 27 27 27 27 26 26 26 26 26 26 27 27 26 26 25 26 26 26 25 25 25 25 25 25 25 25 26 27 27 27 27 27 27 26 26 26
27 26 26 27 26 26 26 26 26 26 26 26 27 26 26 26 26 25 25 25 26 26 25 25 25 25 24 24 24 25 26 27 27 28 28 27 27 26
27 27 27 26 26 26 26 26 26 26 26 26 26 26 26 26 26 26 26 25 25 26 26 25 25 25 24 24 24 24 24 26 27 27 27 27 27 27
27 27 26 25 26 26 27 26 26 26 26 26 25 25 25 25 26 26 26 26 25 25 26 25 25 25 24 24 24 24 24 25 25 26 26 26 25 25
28 27 26 26 26 27 27 27 27 26 26 26 25 25 25 26 26 26 25 25 25 25 26 26 25 24 24 25 24 24 25 25 25 25 26 25 24 24
27 27 27 26 27 27 27 28 27 26 26 25 26 26 26 27 26 26 26 26 26 26 26 27 26 25 25 25 26 25 25 25 26 26 26 25 25 24
28 28 27 27 28 28 27 27 26 26 26 26 26 27 27 27 27 27 27 27 26 26 26 26 26 25 26 26 26 26 26 26 26 26 26 25 25 25
28 27 26 26 27 27 27 27 27 27 27 27 27 27 27 27 27 27 27 27 26 26 27 27 26 26 26 26 26 26 25 25 26 26 25 25 25 25
27 26 26 26 27 27 27 27 27 27 27 28 28 27 27 28 28 28 27 27 27 27 27 27 26 26 26 26 27 26 26 26 26 26 26 25 25 25
26 26 26 26 27 28 28 28 28 27 28 28 28 28 28 29 28 27 27 27 28 27 27 26 26 26 26 26 26 26 26 26 26 25 25 24 24 24
26 26 26 27 28 28 28 28 28 28 29 29 29 29 29 29 28 28 27 28 27 27 27 26 26 26 26 25 25 25 25 25 25 24 23 23 23 23
27 26 27 27 28 28 28 28 29 29 29 29 29 29 29 28 27 27 27 27 27 27 27 27 26 26 26 25 25 25 24 24 24 24 23 23 23 23
Wind_Direction
299 299 301 301 301 299 300 302 303 301 299 296 293 290 290 293 292 292 292 290 288 286 286 286 285 284 282 282 284 284 283 284 284 283 283 281 280 279
302 303 302 301 299 300 301 302 302 302 301 299 296 294 291 289 289 289 289 288 289 288 287 286 284 284 283 282 283 282 282 283 283 282 283 283 282 281
300 299 299 298 296 297 298 299 300 301 301 300 298 295 293 293 292 289 290 292 286 287 288 286 284 284 283 283 282 281 282 281 281 282 282 283 283 281
299 298 297 296 295 295 295 297 298 298 299 299 297 296 295 294 294 295 295 293 288 285 285 286 286 285 283 282 281 281 282 281 280 282 282 282 281 281
299 299 297 297 297 296 296 297 298 298 298 298 296 295 295 294 294 295 293 292 289 287 286 284 284 283 281 282 281 282 282 281 280 280 280 280 281 279
300 301 300 299 298 297 296 296 296 297 297 296 296 295 295 295 293 292 292 292 290 287 286 285 284 282 281 281 280 280 281 282 282 282 280 279 279 278
302 303 301 299 298 296 295 295 295 294 295 296 296 296 297 296 295 292 290 290 290 288 286 286 286 284 281 280 279 278 280 283 283 282 282 279 278 278
304 304 303 301 299 298 297 295 294 294 294 295 295 295 296 296 294 292 292 290 289 287 287 285 284 282 281 280 279 279 280 281 282 282 284 282 279 277
303 303 302 301 301 300 297 295 294 293 293 293 293 294 293 294 293 291 290 290 289 288 287 286 286 284 280 279 280 281 281 281 282 281 282 282 279 277
303 302 301 301 300 299 297 295 293 292 292 292 292 291 292 294 293 291 291 289 289 289 288 286 285 284 283 282 281 281 280 279 280 280 279 279 278 277
302 300 301 302 300 300 299 297 296 293 291 290 291 291 291 293 293 292 292 291 291 290 288 286 285 284 284 283 282 282 281 279 279 280 280 278 277 277
301 302 302 303 302 300 298 297 297 296 294 293 293 293 293 294 295 295 294 293 293 292 290 286 285 284 284 284 283 282 281 278 277 279 280 279 278 277
301 300 302 304 303 302 300 298 298 297 296 294 294 292 292 293 295 297 296 294 294 293 293 289 286 285 284 285 284 282 281 279 277 277 278 278 277 277
299 301 302 303 301 302 302 300 298 298 298 296 295 293 292 292 293 295 296 295 295 295 293 291 289 286 286 286 284 282 282 281 279 277 278 278 277 276
300 300 302 304 303 302 303 303 300 298 297 296 295 294 294 293 293 293 294 294 295 294 294 292 290 287 286 287 285 284 282 281 280 278 278 277 276 276
299 300 301 303 304 303 302 303 302 299 298 296 295 294 293 293 293 293 293 293 294 295 294 292 290 287 286 287 286 285 283 281 280 279 279 278 276 274
297 297 299 301 303 304 304 304 303 301 297 296 295 294 294 294 293 292 292 292 293 295 296 295 291 288 287 286 287 285 283 283 282 282 281 279 278 275
297 297 298 300 303 304 304 303 302 301 299 297 296 295 295 295 293 291 291 291 292 293 294 294 291 288 288 287 287 286 284 285 283 283 281 278 277 276
298 297 297 299 302 303 302 302 302 301 299 298 297 296 296 294 293 293 292 291 292 292 292 293 292 288 287 285 285 284 283 284 283 282 279 277 275 275
298 296 297 299 302 303 301 301 301 302 300 300 299 297 295 294 293 293 292 291 291 293 293 293 292 290 287 286 285 285 286 285 283 283 280 278 275 273
298 297 296 298 301 302 303 303 302 301 301 301 300 300 297 294 292 292 292 291 290 292 293 292 291 290 288 287 286 286 287 285 283 282 281 278 276 273
298 297 297 298 301 302 302 302 302 302 302 301 301 300 298 296 293 291 291 291 291 292 292 291 291 289 287 286 286 287 287 286 284 283 281 279 275 272
298 298 298 298 299 301 302 303 303 303 303 302 300 300 299 297 295 293 292 291 291 291 291 291 291 289 287 286 285 286 287 286 285 282 279 278 276 272
Height
5880 5879 5877 5876 5874 5873 5872 5870 5869 5868 5867 5865 5864 5862 5861 5859 5857 5857 5855 5854 5853 5852 5852 5851 5851 5850 5850 5849 5849 5849 5849 5848 5848 5848 5848 5847 5847 5847
5876 5875 5873 5872 5870 5869 5867 5866 5864 5863 5861 5860 5858 5857 5855 5854 5853 5852 5850 5848 5847 5847 5847 5846 5845 5845 5844 5844 5843 5843 5843 5843 5842 5842 5842 5841 5841 5841
5872 5870 5869 5867 5865 5864 5862 5861 5859 5857 5856 5855 5853 5852 5850 5849 5847 5846 5844 5843 5842 5841 5841 5841 5840 5839 5839 5838 5838 5837 5837 5837 5836 5836 5835 5835 5835 5835
5867 5865 5863 5862 5860 5858 5856 5855 5853 5852 5851 5849 5847 5846 5845 5843 5842 5840 5839 5837 5836 5836 5835 5835 5834 5833 5833 5832 5831 5831 5831 5830 5830 5830 5829 5829 5829 5828
5861 5859 5858 5856 5854 5852 5851 5849 5847 5846 5844 5843 5841 5840 5838 5837 5836 5834 5832 5831 5830 5829 5829 5828 5827 5826 5826 5825 5825 5824 5824 5824 5823 5823 5823 5822 5822 5821
5855 5853 5851 5850 5848 5846 5845 5843 5841 5839 5838 5836 5835 5833 5832 5830 5829 5828 5827 5825 5824 5823 5822 5822 5821 5820 5819 5819 5818 5817 5817 5817 5816 5816 5815 5815 5815 5814
5849 5847 5845 5843 5842 5840 5838 5836 5834 5833 5831 5830 5828 5827 5825 5823 5822 5820 5819 5818 5817 5816 5815 5815 5814 5813 5812 5812 5811 5811 5810 5810 5809 5809 5808 5808 5808 5807
5843 5841 5839 5837 5835 5833 5831 5829 5827 5826 5824 5823 5821 5820 5818 5816 5814 5813 5811 5810 5810 5810 5808 5807 5806 5805 5805 5804 5804 5804 5803 5803 5802 5802 5801 5800 5800 5800
5837 5834 5832 5830 5828 5826 5824 5822 5820 5818 5817 5816 5814 5812 5811 5809 5807 5806 5804 5803 5802 5801 5800 5799 5798 5798 5797 5797 5796 5796 5795 5795 5795 5794 5794 5793 5792 5792
5830 5828 5825 5823 5821 5819 5817 5815 5813 5811 5810 5808 5807 5805 5803 5801 5800 5799 5797 5796 5795 5794 5792 5791 5791 5790 5790 5789 5789 5788 5788 5787 5787 5786 5786 5785 5785 5784
5823 5821 5818 5816 5814 5812 5810 5808 5806 5804 5802 5801 5799 5797 5796 5794 5793 5791 5790 5789 5788 5786 5785 5784 5783 5782 5782 5781 5780 5780 5780 5779 5779 5778 5778 5777 5777 5777
5817 5814 5812 5810 5807 5805 5802 5801 5799 5797 5795 5793 5792 5790 5788 5787 5785 5784 5782 5781 5779 5778 5777 5776 5775 5774 5774 5774 5773 5772 5771 5771 5771 5770 5770 5769 5769 5769
5810 5808 5805 5803 5801 5798 5796 5794 5792 5790 5788 5786 5784 5783 5781 5780 5779 5777 5775 5773 5772 5770 5769 5768 5767 5766 5766 5766 5765 5764 5763 5763 5763 5762 5762 5761 5761 5760
5803 5801 5799 5796 5794 5792 5789 5787 5785 5783 5781 5779 5777 5775 5774 5773 5771 5769 5768 5766 5764 5763 5761 5760 5759 5758 5758 5757 5757 5756 5755 5755 5754 5754 5753 5753 5752 5752
5796 5794 5792 5790 5787 5785 5782 5780 5778 5776 5774 5772 5770 5768 5767 5765 5764 5762 5761 5759 5757 5755 5754 5752 5751 5750 5750 5750 5749 5749 5748 5747 5746 5745 5745 5744 5743 5743
5789 5787 5785 5783 5781 5778 5776 5773 5771 5769 5766 5765 5763 5761 5760 5758 5756 5755 5753 5752 5750 5748 5746 5745 5744 5743 5743 5742 5741 5740 5739 5738 5738 5737 5737 5736 5735 5735
5781 5780 5778 5776 5774 5771 5769 5766 5763 5761 5759 5757 5755 5754 5752 5750 5748 5747 5745 5744 5743 5741 5740 5738 5736 5735 5734 5734 5733 5732 5731 5730 5729 5728 5728 5727 5727 5726
5774 5773 5771 5769 5767 5764 5761 5758 5756 5754 5752 5750 5748 5746 5744 5742 5741 5739 5737 5736 5734 5733 5732 5730 5729 5727 5726 5725 5724 5723 5722 5721 5719 5718 5718 5718 5718 5718
5767 5765 5764 5762 5759 5757 5754 5751 5749 5747 5744 5742 5740 5738 5736 5734 5733 5731 5729 5728 5726 5725 5723 5722 5720 5719 5718 5717 5716 5714 5712 5711 5710 5709 5709 5709 5709 5709
5760 5758 5756 5755 5752 5750 5747 5744 5742 5739 5737 5735 5732 5730 5728 5726 5724 5723 5721 5719 5718 5717 5715 5714 5712 5710 5709 5708 5707 5705 5703 5702 5701 5701 5700 5700 5700 5700
5753 5751 5749 5747 5745 5742 5740 5737 5734 5732 5730 5727 5725 5722 5720 5718 5716 5714 5713 5711 5709 5708 5706 5705 5703 5702 5700 5699 5698 5696 5695 5693 5692 5691 5691 5691 5691 5691
5746 5744 5742 5740 5738 5735 5733 5730 5727 5725 5722 5720 5717 5714 5712 5710 5707 5706 5704 5703 5701 5699 5698 5696 5694 5693 5691 5690 5689 5688 5686 5685 5684 5683 5683 5683 5683 5683
5739 5737 5735 5733 5730 5728 5725 5722 5720 5717 5714 5712 5709 5706 5704 5701 5699 5697 5695 5694 5692 5690 5688 5687 5685 5684 5682 5681 5680 5679 5678 5677 5676 5676 5675 5675 5675 5675